| time (UTC) | temp F | wind direction | speed MPH | gust MPH | rain 1hr in | rain 24hr in | rain mn in | humidity % | barometer mb |
| 20260902124516 | 61 | 171 | 1.0 | 0.0 | 0.00 | 0.00 | 0.00 | 63 | 1000.2 |
| 20260902123016 | 60 | 143 | 0.0 | 0.0 | 0.00 | 0.00 | 0.00 | 62 | 1000.3 |
| 20260902121515 | 60 | 137 | 3.0 | 0.0 | 0.00 | 0.00 | 0.00 | 67 | 1000.1 |
| 20260902120015 | 61 | 152 | 1.0 | 0.0 | 0.00 | 0.00 | 0.00 | 63 | 999.4 |
| 20260902114514 | 61 | 152 | 1.0 | 0.0 | 0.00 | 0.00 | 0.00 | 64 | 999.1 |
| 20260902113012 | 61 | 54 | 1.0 | 0.0 | 0.00 | 0.00 | 0.00 | 64 | 998.9 |
| 20260902111510 | 60 | 81 | 1.0 | 0.0 | 0.00 | 0.00 | 0.00 | 65 | 999.3 |
| 20260902110008 | 62 | 85 | 0.0 | 0.0 | 0.00 | 0.00 | 0.00 | 63 | 997.8 |
| 20260902104504 | 63 | 154 | 0.0 | 0.0 | 0.00 | 0.00 | 0.00 | 61 | 997.6 |
| 20260902103100 | 64 | 134 | 1.0 | 0.0 | 0.00 | 0.00 | 0.00 | 58 | 997.4 |
| 20260902101601 | 65 | 193 | 1.0 | 0.0 | 0.00 | 0.00 | 0.00 | 55 | 997.5 |
| 20260902100110 | 67 | 115 | 2.0 | 0.0 | 0.00 | 0.00 | 0.00 | 54 | 997.1 |
| 20260902094615 | 67 | 255 | 3.0 | 0.0 | 0.00 | 0.00 | 0.00 | 49 | 997.1 |
| 20260902093059 | 67 | 212 | 2.0 | 0.0 | 0.00 | 0.00 | 0.00 | 50 | 997.2 |
| 20260902091602 | 67 | 208 | 3.0 | 0.0 | 0.00 | 0.00 | 0.00 | 50 | 997.1 |
| 20260902090058 | 67 | 241 | 4.0 | 0.0 | 0.00 | 0.00 | 0.00 | 50 | 997.8 |
| 20260902084556 | 67 | 206 | 3.0 | 0.0 | 0.00 | 0.00 | 0.00 | 51 | 997.7 |
| 20260902083058 | 67 | 233 | 2.0 | 0.0 | 0.00 | 0.00 | 0.00 | 52 | 998.0 |
| 20260902081555 | 65 | 228 | 2.0 | 0.0 | 0.00 | 0.00 | 0.00 | 54 | 998.1 |
| 20260902080111 | 65 | 181 | 1.0 | 0.0 | 0.00 | 0.00 | 0.00 | 57 | 997.8 |
| 20260902074553 | 66 | 147 | 0.0 | 0.0 | 0.00 | 0.00 | 0.00 | 56 | 997.9 |
| 20260902073052 | 64 | 150 | 2.0 | 0.0 | 0.00 | 0.00 | 0.00 | 63 | 998.0 |
| 20260902071550 | 65 | 106 | 2.0 | 0.0 | 0.00 | 0.00 | 0.00 | 67 | 997.8 |
| 20260902070047 | 66 | 183 | 0.0 | 0.0 | 0.00 | 0.00 | 0.00 | 58 | 998.5 |
| 20260902064603 | 67 | 280 | 1.0 | 0.0 | 0.00 | 0.00 | 0.00 | 57 | 998.4 |
| 20260902063045 | 68 | 263 | 1.0 | 0.0 | 0.00 | 0.00 | 0.00 | 55 | 998.1 |
| 20260902061552 | 67 | 258 | 2.0 | 0.0 | 0.00 | 0.00 | 0.00 | 55 | 998.1 |
| 20260902060039 | 68 | 252 | 1.0 | 0.0 | 0.00 | 0.00 | 0.00 | 55 | 998.7 |
| 20260902054540 | 68 | 262 | 3.0 | 0.0 | 0.00 | 0.00 | 0.01 | 55 | 998.6 |
| 20260902053038 | 68 | 287 | 4.0 | 0.0 | 0.00 | 0.00 | 0.01 | 55 | 998.2 |
| 20260902051540 | 68 | 236 | 2.0 | 0.0 | 0.00 | 0.00 | 0.01 | 55 | 998.3 |
| 20260902050038 | 69 | 282 | 2.0 | 0.0 | 0.00 | 0.00 | 0.01 | 53 | 999.0 |
| 20260902044537 | 70 | 258 | 2.0 | 0.0 | 0.00 | 0.00 | 0.01 | 51 | 999.2 |
| 20260902043037 | 70 | 292 | 2.0 | 0.0 | 0.00 | 0.00 | 0.01 | 50 | 999.0 |
| 20260902041536 | 71 | 281 | 3.0 | 0.0 | 0.00 | 0.00 | 0.01 | 49 | 999.2 |
| 20260902040036 | 71 | 320 | 2.0 | 0.0 | 0.00 | 0.00 | 0.01 | 51 | 1000.1 |
| 20260902034542 | 71 | 308 | 3.0 | 0.0 | 0.00 | 0.00 | 0.01 | 51 | 999.9 |
| 20260902033052 | 72 | 260 | 3.0 | 0.0 | 0.00 | 0.00 | 0.01 | 49 | 999.5 |
| 20260902031534 | 73 | 250 | 2.0 | 0.0 | 0.00 | 0.00 | 0.01 | 46 | 999.4 |
| 20260902030034 | 74 | 285 | 1.0 | 0.0 | 0.00 | 0.00 | 0.01 | 44 | 1000.3 |
| 20260902024540 | 75 | 298 | 0.0 | 0.0 | 0.00 | 0.00 | 0.01 | 42 | 1000.1 |
| 20260902023032 | 75 | 13 | 0.0 | 0.0 | 0.00 | 0.00 | 0.01 | 41 | 999.5 |
| 20260902021532 | 76 | 347 | 1.0 | 0.0 | 0.00 | 0.00 | 0.01 | 39 | 999.2 |
| 20260902020037 | 77 | 12 | 2.0 | 0.0 | 0.00 | 0.00 | 0.01 | 39 | 999.5 |
| 20260902014533 | 78 | 325 | 3.0 | 0.0 | 0.00 | 0.00 | 0.01 | 38 | 999.2 |
| 20260902013030 | 79 | 328 | 2.0 | 0.0 | 0.00 | 0.00 | 0.01 | 37 | 999.1 |
| 20260902011530 | 80 | 25 | 3.0 | 0.0 | 0.00 | 0.00 | 0.01 | 35 | 998.7 |
| 20260902010029 | 82 | 318 | 2.0 | 0.0 | 0.00 | 0.00 | 0.01 | 34 | 998.3 |
| 20260902004528 | 83 | 279 | 0.0 | 0.0 | 0.00 | 0.00 | 0.01 | 35 | 997.7 |
| 20260902003031 | 84 | 29 | 0.0 | 0.0 | 0.00 | 0.00 | 0.01 | 33 | 997.8 |
| 20260902001528 | 85 | 19 | 1.0 | 0.0 | 0.00 | 0.00 | 0.01 | 33 | 997.7 |
| 20260902000028 | 86 | 29 | 2.0 | 0.0 | 0.00 | 0.00 | 0.01 | 32 | 997.4 |
| 20260901234527 | 86 | 68 | 2.0 | 0.0 | 0.00 | 0.00 | 0.01 | 32 | 997.4 |
| 20260901233034 | 87 | 68 | 4.0 | 0.0 | 0.00 | 0.00 | 0.01 | 31 | 997.5 |
| 20260901231527 | 88 | 57 | 3.0 | 0.0 | 0.00 | 0.00 | 0.01 | 31 | 997.1 |
| 20260901230032 | 89 | 328 | 4.0 | 0.0 | 0.00 | 0.00 | 0.01 | 29 | 996.9 |
| 20260901224534 | 89 | 312 | 3.0 | 0.0 | 0.00 | 0.00 | 0.01 | 31 | 996.9 |
| 20260901223025 | 90 | 323 | 3.0 | 0.0 | 0.00 | 0.00 | 0.01 | 30 | 997.1 |
| 20260901221522 | 88 | 6 | 5.0 | 0.0 | 0.00 | 0.00 | 0.01 | 32 | 997.5 |
| 20260901220021 | 87 | 36 | 4.0 | 0.0 | 0.00 | 0.00 | 0.01 | 32 | 997.5 |
| 20260901214519 | 89 | 300 | 3.0 | 0.0 | 0.00 | 0.00 | 0.01 | 32 | 997.3 |
| 20260901213022 | 88 | 21 | 4.0 | 0.0 | 0.00 | 0.00 | 0.01 | 31 | 997.5 |
| 20260901211524 | 87 | 57 | 3.0 | 0.0 | 0.00 | 0.00 | 0.01 | 33 | 997.8 |
| 20260901210016 | 84 | 76 | 3.0 | 0.0 | 0.00 | 0.00 | 0.01 | 34 | 998.3 |
| 20260901204515 | 87 | 119 | 4.0 | 0.0 | 0.00 | 0.00 | 0.01 | 33 | 998.2 |
| 20260901203015 | 87 | 59 | 5.0 | 0.0 | 0.00 | 0.00 | 0.01 | 34 | 998.2 |
| 20260901201514 | 84 | 106 | 4.0 | 0.0 | 0.00 | 0.00 | 0.01 | 35 | 998.6 |
| 20260901200013 | 87 | 13 | 3.0 | 0.0 | 0.00 | 0.00 | 0.01 | 33 | 998.5 |
| 20260901194513 | 84 | 40 | 3.0 | 0.0 | 0.00 | 0.00 | 0.01 | 36 | 999.5 |
| 20260901193008 | 82 | 46 | 3.0 | 0.0 | 0.00 | 0.00 | 0.01 | 40 | 999.6 |
| 20260901191508 | 82 | 71 | 3.0 | 0.0 | 0.00 | 0.00 | 0.01 | 40 | 999.5 |
| 20260901190017 | 82 | 110 | 4.0 | 0.0 | 0.00 | 0.00 | 0.01 | 39 | 999.6 |
| 20260901184504 | 84 | 35 | 4.0 | 0.0 | 0.00 | 0.00 | 0.01 | 39 | 999.5 |
| 20260901183001 | 82 | 47 | 6.0 | 0.0 | 0.00 | 0.00 | 0.01 | 41 | 999.8 |
| 20260901181601 | 79 | 112 | 6.0 | 0.0 | 0.00 | 0.00 | 0.01 | 45 | 1000.5 |
| 20260901180056 | 78 | 124 | 6.0 | 0.0 | 0.00 | 0.00 | 0.01 | 45 | 1000.9 |
| 20260901174552 | 77 | 121 | 7.0 | 0.0 | 0.00 | 0.00 | 0.01 | 47 | 1001.7 |
| 20260901173059 | 76 | 117 | 6.0 | 0.0 | 0.00 | 0.00 | 0.01 | 50 | 1001.5 |
| 20260901171558 | 76 | 115 | 6.0 | 0.0 | 0.00 | 0.00 | 0.01 | 52 | 1001.9 |
| 20260901170047 | 74 | 79 | 6.0 | 0.0 | 0.00 | 0.00 | 0.01 | 54 | 1002.6 |
| 20260901164551 | 72 | 105 | 6.0 | 0.0 | 0.00 | 0.00 | 0.01 | 61 | 1002.8 |
| 20260901163040 | 72 | 83 | 4.0 | 0.0 | 0.00 | 0.00 | 0.01 | 63 | 1002.9 |
| 20260901161543 | 71 | 92 | 2.0 | 0.0 | 0.00 | 0.00 | 0.01 | 68 | 1003.1 |
| 20260901160034 | 69 | 48 | 1.0 | 0.0 | 0.00 | 0.00 | 0.01 | 76 | 1003.4 |
| 20260901154530 | 66 | 102 | 2.0 | 0.0 | 0.00 | 0.00 | 0.01 | 81 | 1003.8 |
| 20260901153027 | 65 | 146 | 0.0 | 0.0 | 0.00 | 0.00 | 0.01 | 77 | 1004.0 |
| 20260901151531 | 64 | 168 | 0.0 | 0.0 | 0.00 | 0.00 | 0.01 | 80 | 1004.3 |
| 20260901150024 | 63 | 156 | 0.0 | 0.0 | 0.00 | 0.00 | 0.01 | 84 | 1004.1 |
| 20260901144520 | 62 | 156 | 0.0 | 0.0 | 0.00 | 0.00 | 0.01 | 86 | 1004.7 |
| 20260901143017 | 62 | 156 | 0.0 | 0.0 | 0.00 | 0.00 | 0.01 | 86 | 1004.6 |
| 20260901141517 | 61 | 156 | 0.0 | 0.0 | 0.00 | 0.00 | 0.01 | 85 | 1004.5 |
| 20260901140015 | 61 | 156 | 0.0 | 0.0 | 0.00 | 0.00 | 0.01 | 86 | 1003.8 |
| 20260901134514 | 60 | 156 | 0.0 | 0.0 | 0.00 | 0.00 | 0.01 | 87 | 1003.5 |
| 20260901133019 | 60 | 147 | 0.0 | 0.0 | 0.00 | 0.00 | 0.01 | 88 | 1003.5 |
| 20260901131513 | 60 | 133 | 2.0 | 0.0 | 0.00 | 0.00 | 0.01 | 87 | 1003.3 |
| 20260901130013 | 60 | 178 | 1.0 | 0.0 | 0.00 | 0.00 | 0.01 | 86 | 1002.0 |